Weather in Kamenka

Russia / Bryansk Oblast     52°27′52″N   32°21′25″E
temp.,
°C
wind,
m/s
gust,
m/s
humid.,
%
clouds,
%
prec.,
mm/h
press.,
hPa
HPBL,
m
8 march, mon
mon800:00−3wsw4991100 0.7 1005223
03:00−4w4996100 0.8 1005298
06:00−4w4119498 0.1 1005369
09:00−5wnw5119363 0.1 1006554
12:00−3wnw688794 0.1 1008837
15:00−2wnw578197 0.4 10081071
18:00−3wnw3787100 0.5 1009183
21:00−6nnw488996 0.7 1012239
9 march, tue
tue900:00−9nw369635 0.0 1013110
03:00−11nnw489642 0.0 1015157
06:00−13nnw489656 0.0 1017156
09:00−11nnw479443 0.0 1019270
12:00−8nnw478452 0.0 1020671
15:00−6nnw567831 0.0 1021907
18:00−8nnw338798 0.0 102185
21:00−11nnw238956 0.0 102421
10 march, wed
wed1000:00−13nnw11920 0.0 102521
03:00−13sw12895 0.0 102521
06:00−12ssw239072 0.0 102521
09:00−10ssw359178 0.0 1025137
12:00−5sw358483 0.0 1025540
15:00−3wsw347686 0.0 1024938
18:00−5ssw228494 0.0 102430
21:00−8sw239095 0.0 102532
11 march, thu
thu1100:00−9sw239096 0.0 102630
03:00−10ssw119098 0.0 102621
06:00−10se2392100 0.0 102730
09:00−10se349498 0.0 1027142
12:00−5sse459072 0.0 1027412
15:00−3sse468379 0.0 1026772
18:00−5sse378753 0.0 1024165
21:00−9se5119227 0.0 1024200
12 march, fri
fri1200:00−8sse6138797 0.0 1022348
03:00−7sse7157998 0.0 1018434
06:00−5sse101884100 0.1 1014772
09:00−4sse122094100 2.0 1011964
12:00−2s121995100 3.8 10081080
15:000s1017100100 5.9 1006826
18:00+1ssw714100100 3.3 1005458
21:00+1sw51099100 4.6 1005277